| time (UTC) | temp F | wind direction | speed MPH | gust MPH | rain 1hr in | rain 24hr in | rain mn in | humidity % | barometer mb |
| 20260503004955 | 57 | 48 | 1.0 | 2.0 | 0.00 | 0.04 | 0.00 | 97 | 1011.5 |
| 20260503003955 | 57 | 23 | 0.0 | 2.0 | 0.00 | 0.04 | 0.00 | 97 | 1011.8 |
| 20260503002955 | 57 | 318 | 2.0 | 4.0 | 0.00 | 0.04 | 0.00 | 97 | 1011.8 |
| 20260503001954 | 57 | 285 | 3.0 | 4.0 | 0.00 | 0.04 | 0.00 | 97 | 1011.8 |
| 20260503000955 | 57 | 270 | 4.0 | 6.0 | 0.00 | 0.04 | 0.00 | 97 | 1012.0 |
| 20260502235955 | 57 | 275 | 2.0 | 4.0 | 0.00 | 0.04 | 0.00 | 96 | 1012.2 |
| 20260502234955 | 57 | 0 | 0.0 | 0.0 | 0.00 | 0.04 | 0.00 | 96 | 1012.2 |
| 20260502233956 | 57 | 269 | 0.0 | 2.0 | 0.00 | 0.04 | 0.00 | 96 | 1012.4 |
| 20260502232955 | 58 | 306 | 2.0 | 3.0 | 0.00 | 0.04 | 0.00 | 96 | 1012.3 |
| 20260502231955 | 58 | 9 | 0.0 | 2.0 | 0.00 | 0.04 | 0.00 | 95 | 1012.3 |
| 20260502230955 | 58 | 9 | 1.0 | 3.0 | 0.00 | 0.04 | 0.00 | 95 | 1012.3 |
| 20260502225955 | 58 | 12 | 1.0 | 3.0 | 0.00 | 0.04 | 0.00 | 94 | 1012.4 |
| 20260502224955 | 58 | 346 | 2.0 | 5.0 | 0.01 | 0.04 | 0.00 | 94 | 1012.4 |
| 20260502223955 | 58 | 76 | 3.0 | 7.0 | 0.03 | 0.04 | 0.00 | 93 | 1012.3 |
| 20260502222956 | 58 | 94 | 5.0 | 8.0 | 0.03 | 0.04 | 0.00 | 93 | 1012.2 |
| 20260502221956 | 59 | 79 | 5.0 | 9.0 | 0.03 | 0.04 | 0.00 | 93 | 1012.2 |
| 20260502220001 | 59 | 42 | 7.0 | 10.0 | 0.03 | 0.04 | 0.00 | 92 | 1013.4 |
| 20260502214955 | 60 | 324 | 3.0 | 8.0 | 0.02 | 0.03 | 0.03 | 90 | 1013.4 |
| 20260502212956 | 60 | 287 | 7.0 | 11.0 | 0.00 | 0.01 | 0.01 | 90 | 1013.4 |
| 20260502211955 | 61 | 268 | 8.0 | 13.0 | 0.00 | 0.01 | 0.01 | 88 | 1013.4 |
| 20260502205955 | 63 | 240 | 8.0 | 23.0 | 0.00 | 0.01 | 0.01 | 82 | 1012.8 |
| 20260502204956 | 64 | 225 | 3.0 | 10.0 | 0.00 | 0.01 | 0.01 | 81 | 1012.8 |
| 20260502203956 | 64 | 166 | 2.0 | 4.0 | 0.00 | 0.01 | 0.01 | 79 | 1012.2 |
| 20260502202956 | 65 | 143 | 2.0 | 5.0 | 0.00 | 0.01 | 0.01 | 77 | 1012.4 |
| 20260502201955 | 65 | 149 | 4.0 | 8.0 | 0.00 | 0.01 | 0.01 | 77 | 1012.4 |
| 20260502200955 | 66 | 146 | 3.0 | 6.0 | 0.00 | 0.01 | 0.01 | 74 | 1012.4 |
| 20260502195956 | 67 | 121 | 2.0 | 6.0 | 0.01 | 0.01 | 0.01 | 73 | 1012.4 |
| 20260502193955 | 68 | 117 | 4.0 | 9.0 | 0.01 | 0.01 | 0.01 | 71 | 1012.7 |
| 20260502192956 | 69 | 117 | 5.0 | 11.0 | 0.01 | 0.01 | 0.01 | 71 | 1012.8 |
| 20260502191955 | 69 | 113 | 5.0 | 13.0 | 0.01 | 0.01 | 0.01 | 73 | 1012.8 |
| 20260502190956 | 69 | 63 | 4.0 | 9.0 | 0.01 | 0.01 | 0.01 | 74 | 1012.5 |
| 20260502185955 | 71 | 352 | 3.0 | 5.0 | 0.00 | 0.00 | 0.00 | 70 | 1012.4 |
| 20260502184956 | 71 | 6 | 3.0 | 6.0 | 0.00 | 0.00 | 0.00 | 66 | 1012.4 |
| 20260502182956 | 73 | 320 | 3.0 | 8.0 | 0.00 | 0.00 | 0.00 | 63 | 1012.6 |
| 20260502181956 | 74 | 45 | 2.0 | 3.0 | 0.00 | 0.00 | 0.00 | 61 | 1012.6 |
| 20260502180956 | 75 | 348 | 1.0 | 4.0 | 0.00 | 0.00 | 0.00 | 59 | 1012.5 |
| 20260502163957 | 76 | 192 | 3.0 | 5.0 | 0.00 | 0.00 | 0.00 | 57 | 1013.2 |
| 20260502161956 | 77 | 204 | 2.0 | 5.0 | 0.00 | 0.00 | 0.00 | 56 | 1013.4 |
| 20260502160956 | 76 | 206 | 1.0 | 4.0 | 0.00 | 0.00 | 0.00 | 57 | 1013.5 |
| 20260502151957 | 77 | 175 | 2.0 | 8.0 | 0.00 | 0.00 | 0.00 | 56 | 1014.1 |
| 20260502150956 | 77 | 178 | 3.0 | 8.0 | 0.00 | 0.00 | 0.00 | 56 | 1014.4 |
| 20260502122957 | 74 | 223 | 6.0 | 11.0 | 0.00 | 0.00 | 0.00 | 61 | 1016.5 |
| 20260502121957 | 74 | 196 | 5.0 | 12.0 | 0.00 | 0.00 | 0.00 | 62 | 1016.5 |
| 20260502120957 | 74 | 209 | 6.0 | 13.0 | 0.00 | 0.00 | 0.00 | 62 | 1016.6 |
| 20260502113957 | 73 | 189 | 6.0 | 10.0 | 0.00 | 0.00 | 0.00 | 63 | 1016.9 |
| 20260502111958 | 73 | 210 | 5.0 | 10.0 | 0.00 | 0.00 | 0.00 | 63 | 1017.0 |
| 20260502110956 | 72 | 189 | 5.0 | 14.0 | 0.00 | 0.00 | 0.00 | 63 | 1017.1 |
| 20260502105957 | 73 | 209 | 7.0 | 14.0 | 0.00 | 0.00 | 0.00 | 63 | 1017.1 |
| 20260502103959 | 72 | 193 | 6.0 | 11.0 | 0.00 | 0.00 | 0.00 | 63 | 1017.4 |
| 20260502102958 | 72 | 173 | 7.0 | 11.0 | 0.00 | 0.00 | 0.00 | 63 | 1017.5 |
| 20260502101957 | 72 | 200 | 6.0 | 10.0 | 0.00 | 0.00 | 0.00 | 63 | 1017.5 |
| 20260502100957 | 72 | 191 | 5.0 | 12.0 | 0.00 | 0.00 | 0.00 | 64 | 1017.6 |
| 20260502090957 | 69 | 169 | 6.0 | 10.0 | 0.00 | 0.00 | 0.00 | 63 | 1017.9 |
| 20260502070958 | 61 | 182 | 4.0 | 9.0 | 0.00 | 0.00 | 0.00 | 66 | 1018.2 |
| 20260502065958 | 61 | 184 | 5.0 | 8.0 | 0.00 | 0.00 | 0.00 | 65 | 1018.4 |
| 20260502064958 | 60 | 177 | 5.0 | 9.0 | 0.00 | 0.00 | 0.00 | 67 | 1018.4 |
| 20260502063958 | 59 | 175 | 4.0 | 6.0 | 0.00 | 0.00 | 0.00 | 68 | 1018.3 |
| 20260502062958 | 58 | 177 | 3.0 | 7.0 | 0.00 | 0.00 | 0.00 | 69 | 1018.2 |
| 20260502061958 | 58 | 165 | 2.0 | 5.0 | 0.00 | 0.00 | 0.00 | 70 | 1018.2 |
| 20260502060958 | 58 | 171 | 2.0 | 4.0 | 0.00 | 0.00 | 0.00 | 69 | 1018.1 |
| 20260502055958 | 57 | 174 | 3.0 | 5.0 | 0.00 | 0.00 | 0.00 | 68 | 1018.1 |
| 20260502051958 | 55 | 162 | 3.0 | 5.0 | 0.00 | 0.00 | 0.00 | 67 | 1018.1 |
| 20260502050959 | 55 | 160 | 3.0 | 6.0 | 0.00 | 0.00 | 0.00 | 68 | 1017.9 |
| 20260502045958 | 54 | 163 | 1.0 | 4.0 | 0.00 | 0.00 | 0.00 | 69 | 1017.9 |
| 20260502044958 | 53 | 171 | 1.0 | 3.0 | 0.00 | 0.00 | 0.00 | 74 | 1017.9 |
| 20260502043957 | 51 | 151 | 1.0 | 3.0 | 0.00 | 0.00 | 0.00 | 76 | 1017.9 |
| 20260502042958 | 50 | 150 | 1.0 | 4.0 | 0.00 | 0.00 | 0.00 | 75 | 1017.9 |
| 20260502041958 | 49 | 145 | 1.0 | 3.0 | 0.00 | 0.00 | 0.00 | 76 | 1017.9 |
| 20260502040959 | 49 | 143 | 1.0 | 3.0 | 0.00 | 0.00 | 0.00 | 77 | 1018.0 |
| 20260502035958 | 48 | 131 | 1.0 | 4.0 | 0.00 | 0.00 | 0.00 | 79 | 1018.1 |
| 20260502034958 | 47 | 136 | 1.0 | 5.0 | 0.00 | 0.00 | 0.00 | 79 | 1018.1 |
| 20260502033958 | 46 | 131 | 1.0 | 3.0 | 0.00 | 0.00 | 0.00 | 81 | 1018.2 |
| 20260502031958 | 47 | 121 | 0.0 | 2.0 | 0.00 | 0.00 | 0.00 | 78 | 1018.1 |
| 20260502030959 | 47 | 146 | 1.0 | 3.0 | 0.00 | 0.00 | 0.00 | 77 | 1018.2 |
| 20260502024958 | 47 | 145 | 0.0 | 1.0 | 0.00 | 0.00 | 0.00 | 78 | 1018.3 |
| 20260502023959 | 46 | 145 | 0.0 | 2.0 | 0.00 | 0.00 | 0.00 | 78 | 1018.4 |
| 20260502021958 | 47 | 120 | 0.0 | 1.0 | 0.00 | 0.00 | 0.00 | 77 | 1018.5 |
| 20260502020958 | 48 | 126 | 0.0 | 2.0 | 0.00 | 0.00 | 0.00 | 76 | 1018.6 |
| 20260502015958 | 48 | 142 | 0.0 | 1.0 | 0.00 | 0.00 | 0.00 | 75 | 1018.7 |
| 20260502014958 | 48 | 0 | 0.0 | 0.0 | 0.00 | 0.00 | 0.00 | 73 | 1018.7 |
| 20260502013958 | 49 | 140 | 0.0 | 1.0 | 0.00 | 0.00 | 0.00 | 72 | 1018.8 |
| 20260502011958 | 50 | 148 | 0.0 | 2.0 | 0.00 | 0.00 | 0.00 | 70 | 1019.0 |
| 20260502010958 | 50 | 151 | 1.0 | 3.0 | 0.00 | 0.00 | 0.00 | 70 | 1019.1 |